When you browse on this site, cookies collect data to enhance your experience and personalize the content and advertising you see.
Visit our Privacy Policy to learn more. By continuing to use the site, you agree to this use of cookies and data.
  • En España
  • Lista de países
  • Para 7 días
  • Temperatura del agua
  • Mapa Satelital
  • El tiempo en el mapa
  • Informadores
  • user-avatar
    Iniciar sesión

    Tiempo cada hora Ashdod

    Hoy, 20 Julio, Sábado

    Tiempo Temperatura Precipitaciones Viento Presión Humedad
    00:00 +24°C° 0 mm 1 mps 757 mmHg 83%
    01:00 +24°C° 0 mm 1 mps 757 mmHg 84%
    02:00 +24°C° 0 mm 1 mps 756 mmHg 84%
    03:00 +24°C° 0 mm 1 mps 757 mmHg 84%
    04:00 +23°C° 0 mm 1 mps 757 mmHg 85%
    05:00 +23°C° 0 mm 1 mps 757 mmHg 85%
    06:00 +25°C° 0 mm 1 mps 757 mmHg 78%
    07:00 +27°C° 0 mm 1 mps 757 mmHg 72%
    08:00 +28°C° 0 mm 1 mps 757 mmHg 65%
    09:00 +30°C° 0 mm 2 mps 757 mmHg 59%
    10:00 +31°C° 0 mm 3 mps 757 mmHg 54%
    11:00 +33°C° 0 mm 4 mps 757 mmHg 49%
    12:00 +33°C° 0 mm 5 mps 757 mmHg 49%
    13:00 +33°C° 0 mm 5 mps 756 mmHg 48%
    14:00 +33°C° 0 mm 6 mps 756 mmHg 48%
    15:00 +33°C° 0 mm 6 mps 756 mmHg 52%
    16:00 +32°C° 0 mm 5 mps 756 mmHg 56%
    17:00 +30°C° 0 mm 5 mps 756 mmHg 60%
    18:00 +29°C° 0 mm 4 mps 756 mmHg 67%
    19:00 +27°C° 0 mm 4 mps 756 mmHg 74%
    20:00 +26°C° 0 mm 3 mps 757 mmHg 80%
    21:00 +25°C° 0 mm 2 mps 757 mmHg 82%
    22:00 +25°C° 0 mm 2 mps 757 mmHg 83%
    23:00 +24°C° 0 mm 1 mps 757 mmHg 84%

    Mañana, 21 Julio, Domingo

    Tiempo Temperatura Precipitaciones Viento Presión Humedad
    00:00 +24°C° 0 mm 1 mps 756 mmHg 85%
    01:00 +24°C° 0 mm 1 mps 756 mmHg 85%
    02:00 +23°C° 0 mm 1 mps 756 mmHg 86%
    03:00 +23°C° 0 mm 1 mps 756 mmHg 86%
    04:00 +23°C° 0 mm 1 mps 756 mmHg 86%
    05:00 +23°C° 0 mm 1 mps 756 mmHg 86%
    06:00 +25°C° 0 mm 2 mps 756 mmHg 78%
    07:00 +27°C° 0 mm 2 mps 756 mmHg 70%
    08:00 +29°C° 0 mm 2 mps 756 mmHg 61%
    09:00 +30°C° 0 mm 3 mps 756 mmHg 56%
    10:00 +31°C° 0 mm 3 mps 756 mmHg 51%
    11:00 +34°C° 0 mm 4 mps 756 mmHg 46%
    12:00 +34°C° 0 mm 5 mps 755 mmHg 47%
    13:00 +33°C° 0 mm 5 mps 755 mmHg 48%
    14:00 +33°C° 0 mm 6 mps 754 mmHg 49%
    15:00 +33°C° 0 mm 5 mps 754 mmHg 52%
    16:00 +32°C° 0 mm 5 mps 754 mmHg 55%
    17:00 +30°C° 0 mm 5 mps 754 mmHg 58%
    18:00 +29°C° 0 mm 4 mps 755 mmHg 66%
    19:00 +28°C° 0 mm 3 mps 755 mmHg 73%
    20:00 +26°C° 0 mm 3 mps 755 mmHg 81%
    21:00 +25°C° 0 mm 2 mps 755 mmHg 82%
    22:00 +25°C° 0 mm 1 mps 755 mmHg 83%
    23:00 +24°C° 0 mm 1 mps 755 mmHg 84%

    Pasado mañana, 22 Julio, Lunes

    Tiempo Temperatura Precipitaciones Viento Presión Humedad
    00:00 +24°C° 0 mm 1 mps 755 mmHg 85%
    01:00 +24°C° 0 mm 1 mps 754 mmHg 85%
    02:00 +24°C° 0 mm 1 mps 754 mmHg 85%
    03:00 +24°C° 0 mm 1 mps 754 mmHg 86%
    04:00 +23°C° 0 mm 1 mps 754 mmHg 87%
    05:00 +23°C° 0 mm 1 mps 754 mmHg 88%
    06:00 +25°C° 0 mm 1 mps 754 mmHg 80%
    07:00 +27°C° 0 mm 1 mps 755 mmHg 72%
    08:00 +29°C° 0 mm 1 mps 755 mmHg 65%
    09:00 +31°C° 0 mm 2 mps 755 mmHg 58%
    10:00 +34°C° 0 mm 3 mps 754 mmHg 50%
    11:00 +35°C° 0 mm 4 mps 754 mmHg 43%
    12:00 +35°C° 0 mm 4 mps 754 mmHg 45%
    13:00 +35°C° 0 mm 5 mps 753 mmHg 47%
    14:00 +35°C° 0 mm 6 mps 753 mmHg 48%
    15:00 +34°C° 0 mm 7 mps 752 mmHg 52%
    16:00 +34°C° 0 mm 7 mps 752 mmHg 55%
    17:00 +33°C° 0 mm 7 mps 752 mmHg 59%
    18:00 +30°C° 0 mm 6 mps 752 mmHg 65%
    19:00 +29°C° 0 mm 5 mps 753 mmHg 71%
    20:00 +27°C° 0 mm 4 mps 753 mmHg 78%
    21:00 +27°C° 0 mm 3 mps 753 mmHg 80%
    22:00 +26°C° 0 mm 2 mps 753 mmHg 83%
    23:00 +25°C° 0 mm 1 mps 753 mmHg 86%

    23 Julio, Martes

    Tiempo Temperatura Precipitaciones Viento Presión Humedad
    00:00 +25°C° 0 mm 1 mps 752 mmHg 86%
    01:00 +25°C° 0 mm 1 mps 752 mmHg 86%
    02:00 +25°C° 0 mm 1 mps 752 mmHg 86%
    03:00 +24°C° 0 mm 1 mps 752 mmHg 87%
    04:00 +24°C° 0 mm 1 mps 752 mmHg 88%
    05:00 +22°C° 0 mm 0 mps 752 mmHg 88%
    06:00 +26°C° 0 mm 1 mps 752 mmHg 80%
    07:00 +28°C° 0 mm 1 mps 752 mmHg 72%
    08:00 +30°C° 0 mm 1 mps 752 mmHg 64%
    09:00 +32°C° 0 mm 2 mps 752 mmHg 58%
    10:00 +34°C° 0 mm 3 mps 752 mmHg 51%
    11:00 +36°C° 0 mm 4 mps 752 mmHg 45%
    12:00 +36°C° 0 mm 5 mps 752 mmHg 45%
    13:00 +36°C° 0 mm 5 mps 751 mmHg 46%
    14:00 +36°C° 0 mm 6 mps 751 mmHg 46%
    15:00 +35°C° 0 mm 6 mps 751 mmHg 49%
    16:00 +34°C° 0 mm 6 mps 751 mmHg 52%
    17:00 +33°C° 0 mm 6 mps 751 mmHg 56%
    18:00 +32°C° 0 mm 5 mps 752 mmHg 65%
    19:00 +29°C° 0 mm 4 mps 752 mmHg 73%
    20:00 +27°C° 0 mm 3 mps 752 mmHg 82%
    21:00 +27°C° 0 mm 2 mps 752 mmHg 84%
    22:00 +26°C° 0 mm 2 mps 752 mmHg 85%
    23:00 +25°C° 0 mm 1 mps 753 mmHg 86%

    24 Julio, Miércoles

    Tiempo Temperatura Precipitaciones Viento Presión Humedad
    00:00 +25°C° 0 mm 1 mps 752 mmHg 86%
    01:00 +25°C° 0 mm 1 mps 752 mmHg 86%
    02:00 +25°C° 0 mm 1 mps 752 mmHg 86%
    03:00 +25°C° 0 mm 1 mps 752 mmHg 86%
    04:00 +25°C° 0 mm 2 mps 752 mmHg 86%
    05:00 +25°C° 0 mm 2 mps 752 mmHg 86%
    06:00 +27°C° 0 mm 2 mps 753 mmHg 77%
    07:00 +28°C° 0 mm 3 mps 753 mmHg 68%
    08:00 +30°C° 0 mm 3 mps 753 mmHg 59%
    09:00 +33°C° 0 mm 4 mps 753 mmHg 54%
    10:00 +34°C° 0 mm 4 mps 753 mmHg 49%
    11:00 +35°C° 0 mm 5 mps 753 mmHg 44%
    12:00 +35°C° 0 mm 5 mps 753 mmHg 44%
    13:00 +35°C° 0 mm 5 mps 752 mmHg 43%
    14:00 +35°C° 0 mm 5 mps 752 mmHg 42%
    15:00 +35°C° 0 mm 4 mps 752 mmHg 46%
    16:00 +34°C° 0 mm 4 mps 752 mmHg 50%
    17:00 +33°C° 0 mm 4 mps 752 mmHg 54%
    18:00 +30°C° 0 mm 4 mps 752 mmHg 64%
    19:00 +28°C° 0 mm 3 mps 753 mmHg 74%
    20:00 +26°C° 0 mm 2 mps 753 mmHg 84%
    21:00 +26°C° 0 mm 2 mps 753 mmHg 84%
    22:00 +25°C° 0 mm 2 mps 753 mmHg 83%
    23:00 +25°C° 0 mm 1 mps 753 mmHg 83%

    25 Julio, Jueves

    Tiempo Temperatura Precipitaciones Viento Presión Humedad
    00:00 +24°C° 0 mm 1 mps 753 mmHg 84%
    01:00 +22°C° 0 mm 0 mps 753 mmHg 85%
    02:00 +22°C° 0 mm 0 mps 753 mmHg 86%
    03:00 +24°C° 0 mm 1 mps 753 mmHg 86%
    04:00 +24°C° 0 mm 1 mps 753 mmHg 87%
    05:00 +23°C° 0 mm 1 mps 753 mmHg 88%
    06:00 +26°C° 0 mm 1 mps 754 mmHg 79%
    07:00 +28°C° 0 mm 2 mps 754 mmHg 71%
    08:00 +30°C° 0 mm 2 mps 754 mmHg 62%
    09:00 +31°C° 0 mm 2 mps 754 mmHg 55%
    10:00 +34°C° 0 mm 3 mps 754 mmHg 48%
    11:00 +36°C° 0 mm 3 mps 754 mmHg 42%
    12:00 +36°C° 0 mm 4 mps 753 mmHg 42%
    13:00 +36°C° 0 mm 5 mps 753 mmHg 42%
    14:00 +36°C° 0 mm 5 mps 753 mmHg 43%
    15:00 +35°C° 0 mm 5 mps 753 mmHg 44%
    16:00 +34°C° 0 mm 5 mps 752 mmHg 46%
    17:00 +33°C° 0 mm 5 mps 752 mmHg 48%
    18:00 +32°C° 0 mm 4 mps 753 mmHg 58%
    19:00 +29°C° 0 mm 4 mps 753 mmHg 68%
    20:00 +27°C° 0 mm 4 mps 754 mmHg 78%
    21:00 +26°C° 0 mm 3 mps 753 mmHg 75%
    22:00 +26°C° 0 mm 2 mps 753 mmHg 72%
    23:00 +25°C° 0 mm 1 mps 753 mmHg 69%
    Mostrar más